DELTA 1 R/B, 2661

Orbit data source: Space-Track

DELTA 1 R/B, 2661 is space debris in SSO originally from a launch on Thu, 26 Jan 1967 UTC launched from the Air Force Western Test Range (AFWTR). Debris objects in space refer to the collection of defunct objects orbiting the Earth. Examples of debris include non-operational satellites, rocket bodies, and fragments generated from explosions, collisions, or faulty payload assembly.

Loading next visibility...
Identifier
2661, 1967-006B
Orbit
SSO
Country
Flag of USUS
Related business
Manufacturer
ABL
Mission
Spacecraft
Bus & Motor
ALTAIR, Unknown motor
Mass
33 kg wet, 33 kg dry
Launch date (UTC)
1967-01-26 (59 years ago)
Launch vehicle
Unknown
Launch site
Air Force Western Test Range (AFWTR)
Object type
Payload
Rocket body
Debris
Shape & HBR
Unknown
Radar Cross Section
Medium (>0.1 m² and <1 m²)

Expand to show TLE details & history
Last TLE update: 21 hours ago

TLE from 21 hours ago
0 DELTA 1 R/B
1 02661U 67006B   26149.23446157 -.00000034  00000-0  68892-4 0  9993
2 02661 101.9239 228.1109 0065292  92.7239 335.6352 12.68025275745754
Epoch: 2026-05-29T05:37Z
TLE epoch observation values (Epoch: 2026-05-29T05:37:37.479Z)
Latitude
65.24586°
Longitude
-130.17256°
Altitude
1,354.929 km
Speed
7.208 km/s
True Right ascension
13h 24m 00s
True Declination
65° 07' 30"
Sunlit
Object was in daylight at epoch
Visualization orbit readout
Latitude
Unknown
Longitude
Unknown
Altitude
Unknown
Speed
Unknown
Apparent Right ascension
Unknown
Apparent Declination
Unknown
Sunlit
N/A
Visualization observer readout
Local Sidereal Time
12:16:57
Azimuth
Unknown
Elevation
Unknown
Doppler factor
Unknown
Orbital elements
Apogee altitude
1,438.232 km
Perigee altitude
1,336.824 km
Semi-major axis
7,765.665 km
Eccentricity
0.00653
Inclination
101.9239°
RAAN
228.1109°
Arg. of periapsis
92.7239°
True anomaly
335.32423°
Mean anomaly
335.6352°
Eccentric anomaly
335.47995°
Mean motion
3.17158 °/min
Orbital period
113.51 mins
BSTAR
0.000068892
Loading maneuver chart data...
Computing Atmospheric mass density...
Loading historical data...
Loading historical data...
Loading historical data...
Loading historical data...
Loading historical data...
Loading historical data...
Loading historical data...
Other satellites on launch #6 in the year 1967 (1967-01-26 UTC)

Documentation

Showing up to 5 results
|